Hourly Data Report for October 21, 2019

QUALICUM BEACH AIRPORT
BRITISH COLUMBIA
Current Station Operator: ECCC - MSC

49°20'14.000" N
124°23'38.000" W
58.20 m
1026562
71766
VOQ

Download Data

Hourly Data (October 2019)
Hourly Data Report for October 21, 2019
TIME
LST
Temp Definition
°C
Dew Point Definition
°C
Rel Hum Definition
%
Precip. Amount Definition
mm

Wind Dir Definition
10's deg

Wind Spd Definition
km/h
Visibility Definition
km
Stn Press Definition
kPa
Hmdx Definition


Wind Chill Definition


Weather Definition


00:00 8.3 7.5 94 0.0 14 5   101.01     LegendNANA
01:00 8.3 7.6 95 0.0 16 4   101.06     LegendNANA
02:00 8.1 7.5 96 0.0 17 6   101.04     LegendNANA
03:00 8.6 8.0 96 0.3 11 5   101.07     LegendNANA
04:00 8.6 8.1 97 0.6 13 8   101.06     LegendNANA
05:00 9.0 8.5 97 0.3 11 10   101.09     LegendNANA
06:00 8.9 8.4 97 1.0 12 7   101.08     LegendNANA
07:00 9.0 8.5 97 0.3 12 8   101.12     LegendNANA
08:00 9.2 8.7 97 1.0 14 8   101.18     LegendNANA
09:00 9.4 8.9 97 0.9 12 12   101.14     LegendNANA
10:00 9.6 9.1 96 1.0 12 11   101.09     LegendNANA
11:00 10.0 9.3 96 1.6 12 16   101.06     LegendNANA
12:00 10.1 9.4 96 2.5 12 16   101.02     LegendNANA
13:00 9.8 9.0 95 2.5 13 22   100.90     LegendNANA
14:00 10.0 9.1 94 0.8 12 20   100.89     LegendNANA
15:00 10.3 9.4 94 0.0 12 17   100.93     LegendNANA
16:00 9.2 8.6 96 1.5 12 24   100.82     LegendNANA
17:00 9.1 8.4 96 0.6 12 21   100.90     LegendNANA
18:00 9.3 8.4 95 0.6 12 20   100.93     LegendNANA
19:00 9.5 8.7 94 0.0 12 15   100.94     LegendNANA
20:00 9.5 8.9 96 0.0 12 12   100.95     LegendNANA
21:00 9.5 8.9 96 0.0 12 10   101.04     LegendNANA
22:00 9.6 9.0 96 0.0 15 7   101.09     LegendNANA
23:00 9.5 8.9 97 0.0 15 6   101.10     LegendNANA

Notes on Data Quality.

Legend

  • E = Estimated
  • M = Missing
  • NA = Not Available*
  • [empty] = Indicates an unobserved value
Date modified: